Regional Weather Roundup
Issued by NWS Newport/Morehead, NC

Current Version | Previous Version | Graphics & Text | Print | Product List | Glossary On
Versions: 1 2 3 4 5 6 7 8 9 10 11 12 13 14 15 16 17 18 19 20 21 22 23 24 25 26 27 28 29 30 31 32 33 34 35 36 37 38 39 40 41 42 43 44 45 46 47 48 49 50
000 ASUS42 KMHX 241113 RWRMHX WEATHER ROUNDUP FOR EASTERN NORTH CAROLINA NATIONAL WEATHER SERVICE NEWPORT/MOREHEAD CITY NC 700 AM EDT SUN SEP 24 2017 NOTE: "FAIR" INDICATES FEW OR NO CLOUDS BELOW 12,000 FEET WITH NO SIGNIFICANT WEATHER AND/OR OBSTRUCTIONS TO VISIBILITY NCZ015>017-031-032-045>047-102-103-241200- NORTH COAST CITY SKY/WX TMP DP RH WIND PRES REMARKS EDENTON PTCLDY 66 65 95 CALM 30.06R ELIZABETH CITY CLOUDY 67 67 100 CALM 30.05R KITTY HAWK MOSUNNY 69 65 88 CALM 30.03R MANTEO PTCLDY 69 67 92 NE6 30.04R $$ NCZ045>047-081-094-103-104-241200- CENTRAL COAST CITY SKY/WX TMP DP RH WIND PRES REMARKS FRISCO CLEAR 73 70 90 NE7 30.01R $$ NCZ095-097-098-100-101-241200- SOUTHERN COAST CITY SKY/WX TMP DP RH WIND PRES REMARKS BEAUFORT PTCLDY 70 70 100 N7 30.01R CEDAR ISLAND NOT AVBL JACKSONVILLE PTCLDY 69 69 100 N3 30.02R PINEY ISLAND N/A N/A N/A N/A N9 30.01R WILMINGTON CLOUDY 69 68 96 N6 30.02R $$ NCZ011>013-027>030-043-044-078>080-089-090>093-098-241200- COASTAL PLAIN CITY SKY/WX TMP DP RH WIND PRES REMARKS AHOSKIE CLEAR 62 62 100 CALM 30.07R FOG CLINTON MOCLDY 67 67 100 CALM 30.05R ELIZABETHTOWN NOT AVBL GOLDSBORO PTCLDY 68 68 100 CALM 30.03R GREENVILLE FOG 63 63 100 N6 30.07R VSB 1 HAVELOCK PTCLDY 71 70 96 N7 30.03R KENANSVILLE NOT AVBL KINSTON CLEAR 64 64 100 CALM 30.05R FOG NEW BERN CLEAR 68 68 100 N6 30.04R RICHLANDS PTCLDY 66 66 100 N3 30.04R FOG ROCKY MOUNT PTCLDY 65 65 100 N3 30.06R WASHINGTON PTCLDY 65 64 98 N5 30.05R WHITEVILLE PTCLDY 68 67 94 NE3 30.03R $$ AMZ130-135-150-152-154-156-158-170-250-252-270-ANZ085-086-088-633-658-670-241200- MARINE OBSERVATIONS STATION/POSITION TIME TEMP WIND PRES WAVE SWELL AIR SEA DIR/SP/G HT/PER HT/PER (UTC) (F) (DEG/KT/KT) (MB) (FT/S) (FT/S) CHESAPEAKE LIGHT NOT AVBL 64 E VA BEACH 1050 70 69 350/ 4/ 6 1017.7 9/15 8/15 DUCK 1048 74 76 40/ 8/ 9 1016.8 2 E DUCK 1100 75 N/A 5/14 3/14 OREGON INLET 1036 72 77 20/ 10/ 12 1016.6 13E OREGON INLT 1048 74 N/A 7/13 7/13 HATTERAS CG 1048 73 78 40/ 9/ 12 1016.0 DIAMOND BUOY 1050 74 74 30/ 17/ 19 1015.2 7/12 7/12 CAPE LOOKOUT 1100 74 20/ 12/ 14 1015.5 BEAUFORT LAB 1048 72 77 20/ 7/ 9 1015.5 30 SE NEW RVR IN 1008 76 40/ 19/ 25 1014.6 30 SE NEW RVR IN NOT AVBL 27 SE WRIGHTSVLE 1008 77 80 60/ 17/ 25 1014.5 5 SE WRIGHTSVLE NOT AVBL 225 S CAPE HAT 1050 79 79 40/ 23/ 31 1009.8 14/13 11/13 41 SE CHARLESTON 1100 79 82 40/ 17/ 21 1014.0 $$

USA.gov is the U.S. government's official web portal to all federal, state and local government web resources and services.